Location: Cazavet
(43.0017°N, 1.0431°E)
Time: 21:55:10
(UTC+00:00)

Cosmos 1633 Rocket - Pass Details

Date: 18 January 2026
Orbit: 600 x 616 km, 82.5° (Epoch: 10 February)

Event Time Altitude Azimuth Distance (km) Brightness Sun altitude
Rises 06:19:40 0° 196° (SSW) 2,855 6.5 -11.5°
Reaches altitude 10° 06:21:54 10° 200° (SSW) 1,953 5.6 -11.1°
Maximum altitude 06:26:10 60° 280° (W) 697 3.0 -10.3°
Drops below altitude 10° 06:30:28 10° 1° (N) 1,958 5.4 -9.6°
Sets 06:32:42 0° 5° (N) 2,864 6.3 -9.2°
